Back to catalog

KUIPER-00096

AliveCommunicationsLEO
NORAD 65135·PAYLOAD·🇺🇸 United States

Launched Aug 11, 2025 from Cape Canaveral Space Force Station

Loading…

Next Passes (next 24 hours)

TLE

FreshSource: CelesTrak SupGP

Epoch: Sep 14, 2026, 17:10 UTC

1 65135C 25171D   26257.71581019  .00003592  00000+0  47019-3 0  2579
2 65135  51.8997  42.1925 0000540 116.1428   3.2959 14.79930633    10

Track KUIPER-00096 in real time with AllMySat

Download on the App Store